User: anonymous   Login
Location: Sevilla
(37.3933°N, 5.9839°W)
Time: 13:53:50
(UTC+02:00)
Language:

S-56A Canister/Altair - Orbit

View from above orbital plane
View from above orbital plane
View from above satellite
View from above satellite

Ground track
Ground track

The orbit data is extracted from the following two-line orbital elements,

1 00082U 61004B   24172.68148660  .00000403  00000-0  36761-3 0  9999
2 00082  38.8567 176.5155 1165753 311.1210  39.4381 12.26791352987545
Epoch (UTC): 20 June 2024 16:21:20
Eccentricity: 0.1165753
inclination: 38.8567°
perigee height: 637 km
apogee height: 2489 km
right ascension of ascending node: 176.5155°
argument of perigee: 311.1210°
revolutions per day: 12.26791352
mean anomaly at epoch: 39.4381°
orbit number at epoch: 98754

The dashed part of the orbit path shows where the satellite is in the earth's shadow,  

DLR